GW0064 Weather Reports


Display with metric or nautical units.
time (UTC)temp
F
wind
direction
speed
MPH
gust
MPH
rain 1hr
in
rain 24hr
in
rain mn
in
humidity
%
barometer
mb
20260503211502 60 204 9.0 17.0 0.00 0.02 0.02 51 1011.9
20260503211002 59 221 10.0 17.0 0.00 0.02 0.02 50 1012.1
20260503210502 59 195 9.0 17.0 0.00 0.02 0.02 52 1012.1
20260503205500 58 202 6.0 16.0 0.00 0.02 0.02 54 1012.4
20260503205002 58 191 8.0 16.0 0.00 0.02 0.02 53 1012.5
20260503204501 58 239 10.0 16.0 0.00 0.02 0.02 52 1012.6
20260503204001 58 195 11.0 16.0 0.00 0.02 0.02 53 1012.7
20260503203501 58 240 8.0 14.0 0.00 0.02 0.02 55 1012.8
20260503203001 58 169 9.0 12.0 0.00 0.02 0.02 56 1012.9
20260503202502 57 199 7.0 11.0 0.00 0.02 0.02 62 1013.1
20260503202000 56 102 2.0 6.0 0.00 0.02 0.02 67 1013.2
20260503201500 55 129 3.0 6.0 0.00 0.02 0.02 68 1013.3
20260503201002 55 133 2.0 7.0 0.00 0.02 0.02 70 1013.4
20260503200501 54 109 3.0 7.0 0.00 0.02 0.02 70 1013.6
20260503200004 54 122 3.0 6.0 0.00 0.02 0.02 73 1013.7
20260503195501 53 130 1.0 7.0 0.00 0.02 0.02 73 1013.9
20260503194501 52 84 2.0 4.0 0.00 0.02 0.02 76 1014.4
20260503194000 52 124 2.0 4.0 0.01 0.02 0.02 74 1014.6
20260503193500 52 101 0.0 2.0 0.01 0.02 0.02 76 1014.6
20260503193000 51 94 0.0 2.0 0.01 0.02 0.02 78 1014.8
20260503192500 51 82 0.0 2.0 0.02 0.02 0.02 1014.9
20260503192005 51 82 0.0 1.0 0.02 0.02 0.02 79 1014.9
20260503191500 50 78 0.0 3.0 0.02 0.02 0.02 79 1014.9
20260503191004 50 60 0.0 3.0 0.02 0.02 0.02 78 1015.1
20260503190502 50 49 0.0 3.0 0.02 0.02 0.02 78 1015.3
20260503190005 50 49 0.0 3.0 0.02 0.02 0.02 77 1015.5
20260503185500 51 53 1.0 2.0 0.02 0.02 0.02 78 1015.7
20260503185002 51 243 0.0 1.0 0.02 0.02 0.02 75 1015.6
20260503184501 51 243 0.0 5.0 0.02 0.02 0.02 72 1015.7
20260503183501 51 243 2.0 10.0 0.01 0.01 0.01 72 1015.7
20260503183000 51 233 5.0 12.0 0.01 0.01 0.01 69 1015.8
20260503182503 52 259 7.0 16.0 0.00 0.00 0.00 68 1015.9
20260503182003 52 234 10.0 16.0 0.00 0.00 0.00 65 1016.0
20260503181501 0 248 10.0 21.0 0.00 0.00 0.00 100 1016.0
20260503181000 54 241 14.0 24.0 0.00 0.00 0.00 60 1015.9
20260503180501 56 256 11.0 22.0 0.00 0.00 0.00 52 1015.6
20260503175500 57 250 11.0 17.0 0.00 0.00 0.00 49 1015.7
20260503175002 0 236 8.0 19.0 0.00 0.00 0.00 1015.8
20260503174501 0 238 10.0 20.0 0.00 0.00 0.00 1015.8
20260503174001 0 252 12.0 20.0 0.00 0.00 0.00 49 1015.9
20260503173001 0 247 11.0 16.0 0.00 0.00 0.00 49 1016.0
20260503172001 58 231 12.0 20.0 0.00 0.00 0.00 48 1016.2
20260503171500 0 247 13.0 20.0 0.00 0.00 0.00 47 1016.2
20260503171003 0 236 11.0 19.0 0.00 0.00 0.00 100 1016.1
20260503170501 58 213 11.0 18.0 0.00 0.00 0.00 1016.2
20260503151001 56 229 11.0 16.0 0.00 0.00 0.00 49 1017.5
20260503150503 56 240 10.0 16.0 0.00 0.00 0.00 50 1017.5
20260503131002 48 247 9.0 14.0 0.00 0.00 0.00 58 1017.8
20260503130501 48 248 8.0 15.0 0.00 0.00 0.00 57 1017.8
20260503110500 40 261 5.0 9.0 0.00 0.00 0.00 68 1017.6
20260503090500 40 182 2.0 5.0 0.00 0.00 0.00 68 1017.4
20260503081459 41 219 2.0 4.0 0.00 0.00 0.00 67 1017.5
20260503081000 0 249 2.0 4.0 0.00 0.00 0.00 67 1017.5
20260503072459 40 202 1.0 4.0 0.00 0.00 0.00 68 1017.6
20260503072001 40 226 2.0 4.0 0.00 0.00 0.00 67 1017.6
20260503071500 40 198 2.0 4.0 0.00 0.00 0.00 68 1017.6
20260503071000 40 220 1.0 4.0 0.00 0.00 0.00 68 1017.6
20260503070501 39 222 1.0 2.0 0.00 0.00 0.00 68 1017.6
20260503054001 39 199 0.0 1.0 0.00 0.00 0.00 71 1018.3
20260503052959 39 200 1.0 1.0 0.00 0.00 0.00 71 1018.3
20260503052500 39 199 0.0 2.0 0.00 0.00 0.00 71 1018.3
20260503051959 39 209 1.0 2.0 0.00 0.00 0.00 72 1018.4
20260503051000 39 196 1.0 2.0 0.00 0.00 0.00 71 1018.3
20260503050500 39 194 1.0 2.0 0.00 0.00 0.00 71 1018.4
20260503050005 39 194 1.0 2.0 0.00 0.00 0.00 71 1018.4
20260503045502 39 196 1.0 2.0 0.00 0.00 0.00 71 1018.4
20260503044002 40 200 1.0 2.0 0.00 0.00 0.00 71 1018.3
20260503043502 40 186 1.0 2.0 0.00 0.00 0.00 71 1018.4
20260503043004 40 186 0.0 1.0 0.00 0.00 0.00 71 1018.4
20260503042003 40 209 1.0 2.0 0.00 0.00 0.00 70 1018.4
20260503041503 40 188 2.0 2.0 0.00 0.00 0.00 69 1018.3
20260503041003 40 171 1.0 2.0 0.00 0.00 0.00 69 1018.3
20260503040502 40 167 2.0 2.0 0.00 0.00 0.00 68 1018.3
20260503035503 41 171 2.0 2.0 0.00 0.00 0.00 68 1018.3
20260503035003 41 180 1.0 2.0 0.00 0.00 0.00 68 1018.4
20260503034502 41 194 1.0 2.0 0.00 0.00 0.00 68 1018.3
20260503034002 41 197 1.0 3.0 0.00 0.00 0.00 68 1018.3
20260503033503 40 195 1.0 2.0 0.00 0.00 0.00 68 1018.3
20260503033003 40 159 2.0 2.0 0.00 0.00 0.00 68 1018.4
20260503032502 41 165 1.0 2.0 0.00 0.00 0.00 68 1018.3
20260503031502 40 191 1.0 2.0 0.00 0.00 0.00 70 1018.5
20260503031004 40 169 0.0 0.0 0.00 0.00 0.00 71 1018.4
20260503030503 39 89 0.0 0.0 0.00 0.00 0.00 73 1018.5
20260503030006 39 88 0.0 0.0 0.00 0.00 0.00 73 1018.5
20260503025502 40 88 0.0 0.0 0.00 0.00 0.00 71 1018.5
20260503025002 40 88 0.0 0.0 0.00 0.00 0.00 70 1018.5
20260503024503 41 88 0.0 0.0 0.00 0.00 0.00 68 1018.5
20260503024007 41 88 0.0 0.0 0.00 0.00 0.00 67 1018.4
20260503023502 42 88 0.0 0.0 0.00 0.00 0.00 66 1018.4
20260503023004 42 88 0.0 0.0 0.00 0.00 0.00 65 1018.4
20260503022504 42 88 0.0 0.0 0.00 0.00 0.00 64 1018.3
20260503022003 42 88 0.0 1.0 0.00 0.00 0.00 63 1018.4
20260503021502 42 88 0.0 1.0 0.00 0.00 0.00 63 1018.3
20260503021002 42 88 0.0 1.0 0.00 0.00 0.00 64 1018.3
20260503020502 43 88 0.0 0.0 0.00 0.00 0.00 63 1018.3
20260503020004 43 88 0.0 1.0 0.00 0.00 0.00 61 1018.3
20260503015001 44 88 0.0 1.0 0.00 0.00 0.00 58 1018.1
20260503014504 44 52 0.0 1.0 0.00 0.00 0.00 59 1018.1
20260503014003 44 288 0.0 0.0 0.00 0.00 0.00 55 1018.1
20260503013501 44 288 0.0 0.0 0.00 0.00 0.00 56 1018.1
20260503013002 44 288 0.0 0.0 0.00 0.00 0.00 56 1018.0
20260503012502 45 288 0.0 0.0 0.00 0.00 0.00 56 1018.0
20260503012001 45 288 0.0 0.0 0.00 0.00 0.00 53 1018.0
20260503011503 45 288 0.0 0.0 0.00 0.00 0.00 56 1018.1
20260503011002 45 288 0.0 0.0 0.00 0.00 0.00 59 1018.1
20260503010503 46 288 0.0 1.0 0.00 0.00 0.00 56 1018.0
20260503010004 46 288 0.0 1.0 0.00 0.00 0.00 52 1018.0
20260503005503 47 288 0.0 2.0 0.00 0.00 0.00 51 1018.0
20260503005001 47 288 1.0 2.0 0.00 0.00 0.00 50 1017.9
20260503004501 48 292 1.0 2.0 0.00 0.00 0.00 47 1017.9
20260503003501 49 317 1.0 3.0 0.00 0.00 0.00 44 1018.0
20260503003002 49 316 2.0 4.0 0.00 0.00 0.00 42 1017.9
20260503002504 50 299 2.0 6.0 0.00 0.00 0.00 41 1017.9
20260503002001 50 298 4.0 6.0 0.00 0.00 0.00 38 1017.8
20260503001501 50 293 4.0 6.0 0.00 0.00 0.00 39 1017.8
20260503000502 51 302 4.0 7.0 0.00 0.00 0.00 37 1017.7
20260503000004 51 307 5.0 8.0 0.00 0.00 0.00 36 1017.7
20260502235502 51 347 5.0 9.0 0.00 0.00 0.00 37 1017.7
20260502235001 51 33 3.0 9.0 0.00 0.00 0.00 38 1017.6
20260502234501 51 343 4.0 10.0 0.00 0.00 0.00 37 1017.6
20260502234001 51 318 6.0 10.0 0.00 0.00 0.00 36 1017.7
20260502233503 51 323 5.0 9.0 0.00 0.00 0.00 36 1017.6
20260502233003 52 327 4.0 9.0 0.00 0.00 0.00 38 1017.7
20260502232501 52 330 3.0 8.0 0.00 0.00 0.00 38 1017.6
20260502232002 52 343 4.0 9.0 0.00 0.00 0.00 36 1017.7
20260502231502 52 316 5.0 11.0 0.00 0.00 0.00 36 1017.7
20260502230503 52 306 5.0 9.0 0.00 0.00 0.00 37 1017.7
20260502230004 0 298 5.0 14.0 0.00 0.00 0.00 1017.7
20260502225502 52 325 6.0 14.0 0.00 0.00 0.00 37 1017.7
20260502225001 52 278 3.0 8.0 0.00 0.00 0.00 37 1017.6
20260502224501 52 333 4.0 9.0 0.00 0.00 0.00 1017.7
20260502224001 51 36 4.0 9.0 0.00 0.00 0.00 39 1017.7
20260502223502 0 295 5.0 10.0 0.00 0.00 0.00 1017.8
20260502223002 0 295 6.0 10.0 0.00 0.00 0.00 100 1017.8
20260502222501 0 333 6.0 10.0 0.00 0.00 0.00 99 1017.8
20260502222001 0 3 6.0 14.0 0.00 0.00 0.00 1017.8
20260502221503 0 38 7.0 16.0 0.00 0.00 0.00 1017.7
20260502221002 0 310 8.0 16.0 0.00 0.00 0.00 1017.7
20260502220501 0 304 5.0 11.0 0.00 0.00 0.00 1017.6
20260502220004 0 323 5.0 9.0 0.00 0.00 0.00 1017.6
20260502215501 0 298 5.0 13.0 0.00 0.00 0.00 1017.7
20260502214501 0 310 6.0 13.0 0.00 0.00 0.00 100 1017.7
20260502214001 53 12 9.0 13.0 0.00 0.00 0.00 38 1017.6
20260502213502 53 48 3.0 13.0 0.00 0.00 0.00 97 1017.6
20260502212501 52 283 7.0 13.0 0.00 0.00 0.00 39 1017.6
20260502212001 52 302 7.0 13.0 0.00 0.00 0.00 41 1017.6